Time,TemperatureF,DewpointF,PressureIn,WindDirection,WindDirectionDegrees,WindSpeedMPH,WindSpeedGustMPH,Humidity,HourlyPrecipIn,Conditions,Clouds,dailyrainin,SolarRadiationWatts/m^2,SoftwareType,DateUTC
2013-09-12 04:11:00,48.3,43.4,30.01,NNE,32,0.0,0.0,83,0.00,,,0.00,0,Wunderground v.1.15,2013-09-12 10:11:00,
2013-09-12 04:16:00,48.3,43.1,30.01,NNE,32,0.0,0.0,82,0.00,,,0.00,0,Wunderground v.1.15,2013-09-12 10:16:00,
2013-09-12 04:21:00,48.6,43.7,30.01,NNE,33,0.0,0.0,83,0.00,,,0.00,0,Wunderground v.1.15,2013-09-12 10:21:00,
2013-09-12 04:26:00,48.8,43.9,30.01,NNE,32,0.0,1.0,83,0.00,,,0.00,0,Wunderground v.1.15,2013-09-12 10:26:00,
2013-09-12 04:31:00,48.6,43.4,30.01,NNE,32,0.0,0.0,82,0.00,,,0.00,0,Wunderground v.1.15,2013-09-12 10:31:00,
2013-09-12 04:36:00,48.3,43.4,30.01,NNE,32,0.0,0.0,83,0.00,,,0.00,0,Wunderground v.1.15,2013-09-12 10:36:00,
2013-09-12 04:41:00,48.1,43.2,30.01,NNE,32,0.0,0.0,83,0.00,,,0.00,0,Wunderground v.1.15,2013-09-12 10:41:00,
2013-09-12 04:46:00,47.9,43.0,30.02,NNE,32,0.0,0.0,83,0.00,,,0.00,0,Wunderground v.1.15,2013-09-12 10:46:00,
2013-09-12 04:51:00,47.5,42.6,30.02,NNE,32,0.0,0.0,83,0.00,,,0.00,0,Wunderground v.1.15,2013-09-12 10:51:00,
2013-09-12 04:56:00,47.4,42.5,30.02,NNE,32,0.0,0.0,83,0.00,,,0.00,0,Wunderground v.1.15,2013-09-12 10:56:00,
2013-09-12 05:01:00,47.3,42.4,30.01,NNE,32,0.0,0.0,83,0.00,,,0.00,0,Wunderground v.1.15,2013-09-12 11:01:00,
2013-09-12 05:06:00,47.2,42.6,30.01,NNE,33,0.0,0.0,84,0.00,,,0.00,0,Wunderground v.1.15,2013-09-12 11:06:00,
2013-09-12 05:11:00,47.3,42.7,30.01,NNE,33,0.0,0.0,84,0.00,,,0.00,0,Wunderground v.1.15,2013-09-12 11:11:00,
2013-09-12 05:16:00,47.2,42.6,30.01,NNE,33,0.0,0.0,84,0.00,,,0.00,0,Wunderground v.1.15,2013-09-12 11:16:00,
2013-09-12 05:21:00,47.1,42.5,30.01,NNE,32,0.0,0.0,84,0.00,,,0.00,0,Wunderground v.1.15,2013-09-12 11:21:00,
2013-09-12 05:26:00,46.8,42.5,30.01,NNE,32,0.0,0.0,85,0.00,,,0.00,0,Wunderground v.1.15,2013-09-12 11:26:00,
2013-09-12 05:31:00,46.7,42.4,30.02,NNE,32,0.0,0.0,85,0.00,,,0.00,0,Wunderground v.1.15,2013-09-12 11:31:00,
2013-09-12 05:36:00,46.8,42.8,30.02,NNE,32,0.0,0.0,86,0.00,,,0.00,0,Wunderground v.1.15,2013-09-12 11:36:00,
2013-09-12 05:41:00,46.7,42.7,30.02,NNE,32,0.0,0.0,86,0.00,,,0.00,0,Wunderground v.1.15,2013-09-12 11:41:00,
2013-09-12 05:46:00,46.7,42.7,30.01,NNE,32,0.0,0.0,86,0.00,,,0.00,0,Wunderground v.1.15,2013-09-12 11:46:00,
2013-09-12 05:51:00,46.4,42.1,30.01,NNE,32,0.0,0.0,85,0.00,,,0.00,0,Wunderground v.1.15,2013-09-12 11:51:00,
2013-09-12 05:56:00,46.3,42.0,30.01,NNE,33,0.0,0.0,85,0.00,,,0.00,0,Wunderground v.1.15,2013-09-12 11:56:00,
2013-09-12 06:01:00,46.2,42.2,30.01,NNE,32,0.0,0.0,86,0.00,,,0.00,0,Wunderground v.1.15,2013-09-12 12:01:00,
2013-09-12 06:06:00,46.3,42.3,30.01,NNE,32,0.0,0.0,86,0.00,,,0.00,0,Wunderground v.1.15,2013-09-12 12:06:00,
2013-09-12 06:11:00,46.4,42.4,30.01,NNE,32,0.0,0.0,86,0.00,,,0.00,0,Wunderground v.1.15,2013-09-12 12:11:00,
2013-09-12 06:16:00,46.5,42.5,30.01,NNE,33,0.0,0.0,86,0.00,,,0.00,0,Wunderground v.1.15,2013-09-12 12:16:00,
2013-09-12 06:21:00,46.1,42.1,30.01,NNE,32,0.0,0.0,86,0.00,,,0.00,0,Wunderground v.1.15,2013-09-12 12:21:00,
2013-09-12 06:26:00,45.8,41.9,30.01,NNE,32,0.0,0.0,86,0.00,,,0.00,0,Wunderground v.1.15,2013-09-12 12:26:00,
2013-09-12 06:31:00,45.6,41.7,30.01,NNE,32,0.0,0.0,86,0.00,,,0.00,0,Wunderground v.1.15,2013-09-12 12:31:00,
2013-09-12 06:36:00,45.5,41.6,30.01,NNE,32,0.0,0.0,86,0.00,,,0.00,0,Wunderground v.1.15,2013-09-12 12:36:00,
2013-09-12 06:41:00,45.4,41.5,30.01,NNE,33,0.0,0.0,86,0.00,,,0.00,0,Wunderground v.1.15,2013-09-12 12:41:00,
2013-09-12 06:46:00,45.4,41.5,30.01,NNE,32,0.0,0.0,86,0.00,,,0.00,0,Wunderground v.1.15,2013-09-12 12:46:00,
2013-09-12 06:51:00,45.2,41.3,30.01,NNE,32,0.0,0.0,86,0.00,,,0.00,0,Wunderground v.1.15,2013-09-12 12:51:00,
2013-09-12 06:56:00,45.2,41.3,30.01,NNE,32,0.0,0.0,86,0.00,,,0.00,0,Wunderground v.1.15,2013-09-12 12:56:00,
2013-09-12 07:01:00,45.0,41.1,30.01,NNE,33,0.0,0.0,86,0.00,,,0.00,0,Wunderground v.1.15,2013-09-12 13:01:00,
2013-09-12 07:06:00,44.2,40.0,30.01,NNE,32,0.0,0.0,85,0.00,,,0.00,5,Wunderground v.1.15,2013-09-12 13:06:00,
2013-09-12 07:11:00,43.8,39.6,30.01,NNE,33,0.0,0.0,85,0.00,,,0.00,7,Wunderground v.1.15,2013-09-12 13:11:00,
2013-09-12 07:16:00,43.6,39.7,30.01,NNE,32,0.0,0.0,86,0.00,,,0.00,11,Wunderground v.1.15,2013-09-12 13:16:00,
2013-09-12 07:21:00,43.6,39.7,30.01,NNE,32,0.0,0.0,86,0.00,,,0.00,14,Wunderground v.1.15,2013-09-12 13:21:00,
2013-09-12 07:26:00,43.8,40.2,30.01,NNE,33,0.0,0.0,87,0.00,,,0.00,21,Wunderground v.1.15,2013-09-12 13:26:00,
2013-09-12 07:32:00,43.8,40.2,30.01,NNE,32,0.0,0.0,87,0.00,,,0.00,30,Wunderground v.1.15,2013-09-12 13:32:00,
2013-09-12 07:37:00,43.8,40.2,30.01,NNE,32,0.0,0.0,87,0.00,,,0.00,39,Wunderground v.1.15,2013-09-12 13:37:00,
2013-09-12 07:42:00,44.0,40.4,30.01,NNE,32,0.0,0.0,87,0.00,,,0.00,42,Wunderground v.1.15,2013-09-12 13:42:00,
2013-09-12 07:47:00,44.6,41.3,30.01,NNE,32,0.0,0.0,88,0.00,,,0.00,49,Wunderground v.1.15,2013-09-12 13:47:00,
2013-09-12 07:52:00,45.9,42.5,30.01,NNE,33,0.0,0.0,88,0.00,,,0.00,53,Wunderground v.1.15,2013-09-12 13:52:00,
2013-09-12 07:57:00,46.9,43.5,30.01,NNE,32,0.0,0.0,88,0.00,,,0.00,40,Wunderground v.1.15,2013-09-12 13:57:00,
2013-09-12 08:02:00,47.4,43.4,30.01,NNE,32,0.0,0.0,86,0.00,,,0.00,37,Wunderground v.1.15,2013-09-12 14:02:00,
2013-09-12 08:07:00,47.4,43.4,30.01,NNE,32,0.0,0.0,86,0.00,,,0.00,47,Wunderground v.1.15,2013-09-12 14:07:00,
2013-09-12 08:12:00,47.3,43.3,30.01,NNE,32,0.0,0.0,86,0.00,,,0.00,79,Wunderground v.1.15,2013-09-12 14:12:00,
2013-09-12 08:17:00,47.4,43.4,30.01,NNE,32,0.0,0.0,86,0.00,,,0.00,121,Wunderground v.1.15,2013-09-12 14:17:00,
2013-09-12 08:22:00,47.9,43.9,30.01,NNE,32,0.0,0.0,86,0.00,,,0.00,127,Wunderground v.1.15,2013-09-12 14:22:00,
2013-09-12 08:27:00,48.8,44.8,30.01,NNE,32,0.0,0.0,86,0.00,,,0.00,153,Wunderground v.1.15,2013-09-12 14:27:00,
2013-09-12 08:32:00,49.5,45.2,30.00,NNE,32,0.0,0.0,85,0.00,,,0.00,146,Wunderground v.1.15,2013-09-12 14:32:00,
2013-09-12 08:37:00,50.0,45.4,30.00,NE,38,0.0,3.0,84,0.00,,,0.00,195,Wunderground v.1.15,2013-09-12 14:37:00,
2013-09-12 08:42:00,50.7,46.0,30.00,NE,38,0.0,0.0,84,0.00,,,0.00,176,Wunderground v.1.15,2013-09-12 14:42:00,
2013-09-12 08:47:00,51.2,45.9,30.00,NE,38,0.0,1.0,82,0.00,,,0.00,72,Wunderground v.1.15,2013-09-12 14:47:00,
2013-09-12 08:52:00,50.8,45.2,30.00,NE,55,0.0,2.0,81,0.00,,,0.00,155,Wunderground v.1.15,2013-09-12 14:52:00,
2013-09-12 08:57:00,50.7,45.4,30.00,ENE,58,0.0,2.0,82,0.00,,,0.00,169,Wunderground v.1.15,2013-09-12 14:57:00,
2013-09-12 09:02:00,51.1,45.8,30.00,ENE,58,0.0,0.0,82,0.00,,,0.00,227,Wunderground v.1.15,2013-09-12 15:02:00,
2013-09-12 09:07:00,52.3,47.0,30.00,ENE,57,0.0,0.0,82,0.00,,,0.00,287,Wunderground v.1.15,2013-09-12 15:07:00,
2013-09-12 09:12:00,53.8,47.4,30.00,ENE,57,0.0,0.0,79,0.00,,,0.00,302,Wunderground v.1.15,2013-09-12 15:12:00,
2013-09-12 09:17:00,54.9,47.8,30.00,ENE,57,0.0,0.0,77,0.00,,,0.00,338,Wunderground v.1.15,2013-09-12 15:17:00,
2013-09-12 09:22:00,55.8,48.0,30.00,ENE,57,0.0,0.0,75,0.00,,,0.00,357,Wunderground v.1.15,2013-09-12 15:22:00,
2013-09-12 09:27:00,56.3,47.8,30.00,ENE,57,0.0,0.0,73,0.00,,,0.00,369,Wunderground v.1.15,2013-09-12 15:27:00,
2013-09-12 12:49:00,76.8,50.6,29.90,ESE,123,3.0,3.0,40,0.00,,,0.00,591,Wunderground v.1.15,2013-09-12 18:49:00,
2013-09-12 12:54:00,77.4,51.2,29.90,ESE,120,0.0,3.0,40,0.00,,,0.00,621,Wunderground v.1.15,2013-09-12 18:54:00,
2013-09-12 12:59:00,77.8,50.9,29.90,SE,130,0.0,1.0,39,0.00,,,0.00,545,Wunderground v.1.15,2013-09-12 18:59:00,
2013-09-12 13:04:00,77.2,50.3,29.89,South,173,0.0,5.0,39,0.00,,,0.00,489,Wunderground v.1.15,2013-09-12 19:04:00,
2013-09-12 13:09:00,77.4,50.5,29.89,SSE,162,0.0,5.0,39,0.00,,,0.00,350,Wunderground v.1.15,2013-09-12 19:09:00,
2013-09-12 13:14:00,76.9,50.7,29.89,SSE,157,0.0,3.0,40,0.00,,,0.00,381,Wunderground v.1.15,2013-09-12 19:14:00,
2013-09-12 13:19:00,76.2,50.8,29.89,SSE,157,0.0,3.0,41,0.00,,,0.00,401,Wunderground v.1.15,2013-09-12 19:19:00,
2013-09-12 13:24:00,76.4,51.0,29.89,SSE,157,0.0,0.0,41,0.00,,,0.00,431,Wunderground v.1.15,2013-09-12 19:24:00,
2013-09-12 13:29:00,76.9,50.7,29.89,SSE,155,0.0,1.0,40,0.00,,,0.00,622,Wunderground v.1.15,2013-09-12 19:29:00,
2013-09-12 13:34:00,77.6,51.4,29.88,SE,144,0.0,4.0,40,0.00,,,0.00,758,Wunderground v.1.15,2013-09-12 19:34:00,
2013-09-12 13:39:00,78.5,51.5,29.88,SE,144,0.0,4.0,39,0.00,,,0.00,744,Wunderground v.1.15,2013-09-12 19:39:00,
2013-09-12 13:44:00,79.4,53.0,29.88,ESE,116,0.0,4.0,40,0.00,,,0.00,742,Wunderground v.1.15,2013-09-12 19:44:00,
2013-09-12 13:49:00,80.1,51.5,29.87,ESE,117,0.0,4.0,37,0.00,,,0.00,731,Wunderground v.1.15,2013-09-12 19:49:00,
2013-09-12 13:54:00,79.7,51.8,29.87,ESE,123,0.0,2.0,38,0.00,,,0.00,661,Wunderground v.1.15,2013-09-12 19:54:00,
2013-09-12 13:59:00,79.8,51.9,29.87,SE,124,0.0,2.0,38,0.00,,,0.00,696,Wunderground v.1.15,2013-09-12 19:59:00,
2013-09-12 14:04:00,79.5,50.9,29.86,SE,126,3.0,3.0,37,0.00,,,0.00,582,Wunderground v.1.15,2013-09-12 20:04:00,
2013-09-12 14:09:00,79.7,49.6,29.86,ESE,120,0.0,6.0,35,0.00,,,0.00,561,Wunderground v.1.15,2013-09-12 20:09:00,
2013-09-12 14:14:00,79.4,50.9,29.86,SSE,159,0.0,8.0,37,0.00,,,0.00,577,Wunderground v.1.15,2013-09-12 20:14:00,
2013-09-12 14:19:00,79.2,50.7,29.85,South,184,0.0,8.0,37,0.00,,,0.00,520,Wunderground v.1.15,2013-09-12 20:19:00,
2013-09-12 14:24:00,78.8,48.8,29.85,SW,218,1.0,7.0,35,0.00,,,0.00,482,Wunderground v.1.15,2013-09-12 20:24:00,
2013-09-12 14:29:00,78.9,49.7,29.85,SSW,213,1.0,7.0,36,0.00,,,0.00,719,Wunderground v.1.15,2013-09-12 20:29:00,
2013-09-12 14:34:00,79.3,50.0,29.85,South,186,4.0,6.0,36,0.00,,,0.00,751,Wunderground v.1.15,2013-09-12 20:34:00,
2013-09-12 14:39:00,79.4,49.4,29.85,South,185,0.0,6.0,35,0.00,,,0.00,250,Wunderground v.1.15,2013-09-12 20:39:00,
2013-09-12 14:44:00,79.1,49.8,29.85,South,185,0.0,2.0,36,0.00,,,0.00,193,Wunderground v.1.15,2013-09-12 20:44:00,
2013-09-12 14:49:00,78.7,49.5,29.84,South,184,0.0,2.0,36,0.00,,,0.00,218,Wunderground v.1.15,2013-09-12 20:49:00,
2013-09-12 14:54:00,78.1,50.4,29.84,South,181,5.0,5.0,38,0.00,,,0.00,301,Wunderground v.1.15,2013-09-12 20:54:00,
2013-09-12 14:59:00,78.3,50.6,29.84,South,189,0.0,7.0,38,0.00,,,0.00,766,Wunderground v.1.15,2013-09-12 20:59:00,
2013-09-12 15:05:00,79.3,49.3,29.84,South,169,1.0,6.0,35,0.00,,,0.00,735,Wunderground v.1.15,2013-09-12 21:05:00,
2013-09-12 15:10:00,80.3,48.6,29.84,South,172,2.0,3.0,33,0.00,,,0.00,707,Wunderground v.1.15,2013-09-12 21:10:00,
2013-09-12 15:15:00,81.1,49.3,29.84,South,176,0.0,7.0,33,0.00,,,0.00,679,Wunderground v.1.15,2013-09-12 21:15:00,
2013-09-12 15:20:00,81.4,49.5,29.83,SSW,196,0.0,2.0,33,0.00,,,0.00,652,Wunderground v.1.15,2013-09-12 21:20:00,
2013-09-12 15:25:00,82.1,49.3,29.83,South,170,1.0,8.0,32,0.00,,,0.00,636,Wunderground v.1.15,2013-09-12 21:25:00,
2013-09-12 15:30:00,82.1,50.9,29.83,South,175,0.0,2.0,34,0.00,,,0.00,619,Wunderground v.1.15,2013-09-12 21:30:00,
2013-09-12 15:35:00,82.1,50.1,29.82,South,173,6.0,7.0,33,0.00,,,0.00,606,Wunderground v.1.15,2013-09-12 21:35:00,
2013-09-12 15:40:00,82.0,50.1,29.82,South,180,0.0,3.0,33,0.00,,,0.00,601,Wunderground v.1.15,2013-09-12 21:40:00,
2013-09-12 15:45:00,81.4,49.5,29.82,SSW,200,2.0,10.0,33,0.00,,,0.00,571,Wunderground v.1.15,2013-09-12 21:45:00,
2013-09-12 15:50:00,81.4,50.3,29.82,South,173,0.0,10.0,34,0.00,,,0.00,580,Wunderground v.1.15,2013-09-12 21:50:00,
2013-09-12 15:55:00,81.8,51.5,29.82,SSE,159,0.0,6.0,35,0.00,,,0.00,566,Wunderground v.1.15,2013-09-12 21:55:00,
2013-09-12 16:00:00,81.5,49.6,29.82,South,190,4.0,4.0,33,0.00,,,0.00,561,Wunderground v.1.15,2013-09-12 22:00:00,
2013-09-12 16:05:00,81.8,50.7,29.82,South,176,0.0,5.0,34,0.00,,,0.00,555,Wunderground v.1.15,2013-09-12 22:05:00,
2013-09-12 16:10:00,82.1,49.3,29.82,SSW,193,8.0,8.0,32,0.00,,,0.00,552,Wunderground v.1.15,2013-09-12 22:10:00,
2013-09-12 16:15:00,81.8,49.1,29.82,SSE,164,2.0,12.0,32,0.00,,,0.00,543,Wunderground v.1.15,2013-09-12 22:15:00,
2013-09-12 16:20:00,81.7,48.1,29.81,SSE,161,0.0,4.0,31,0.00,,,0.00,536,Wunderground v.1.15,2013-09-12 22:20:00,
2013-09-12 16:25:00,82.1,48.5,29.81,SW,236,1.0,5.0,31,0.00,,,0.00,526,Wunderground v.1.15,2013-09-12 22:25:00,
2013-09-12 16:30:00,82.5,50.5,29.81,SW,221,4.0,4.0,33,0.00,,,0.00,476,Wunderground v.1.15,2013-09-12 22:30:00,
2013-09-12 16:35:00,82.6,48.9,29.81,SSE,152,2.0,6.0,31,0.00,,,0.00,497,Wunderground v.1.15,2013-09-12 22:35:00,
2013-09-12 16:40:00,83.0,50.9,29.81,South,190,2.0,3.0,33,0.00,,,0.00,478,Wunderground v.1.15,2013-09-12 22:40:00,
2013-09-12 16:45:00,84.0,50.1,29.80,ESE,115,4.0,9.0,31,0.00,,,0.00,512,Wunderground v.1.15,2013-09-12 22:45:00,
2013-09-12 16:50:00,84.0,51.0,29.80,SSE,157,2.0,3.0,32,0.00,,,0.00,496,Wunderground v.1.15,2013-09-12 22:50:00,
2013-09-12 16:55:00,83.6,49.8,29.80,SSE,168,6.0,8.0,31,0.00,,,0.00,459,Wunderground v.1.15,2013-09-12 22:55:00,
2013-09-12 17:00:00,83.3,49.5,29.80,South,179,2.0,2.0,31,0.00,,,0.00,432,Wunderground v.1.15,2013-09-12 23:00:00,
2013-09-12 17:05:00,83.3,50.4,29.80,South,180,0.0,3.0,32,0.00,,,0.00,387,Wunderground v.1.15,2013-09-12 23:05:00,
2013-09-12 17:10:00,83.7,49.9,29.80,SSW,198,3.0,3.0,31,0.00,,,0.00,383,Wunderground v.1.15,2013-09-12 23:10:00,
2013-09-12 17:15:00,83.6,51.5,29.79,SSW,207,0.0,6.0,33,0.00,,,0.00,334,Wunderground v.1.15,2013-09-12 23:15:00,
2013-09-12 17:20:00,83.2,49.4,29.79,South,175,0.0,2.0,31,0.00,,,0.00,322,Wunderground v.1.15,2013-09-12 23:20:00,
2013-09-12 17:25:00,83.1,51.0,29.79,South,175,0.0,3.0,33,0.00,,,0.00,334,Wunderground v.1.15,2013-09-12 23:25:00,
2013-09-12 17:30:00,83.2,50.3,29.79,South,177,4.0,4.0,32,0.00,,,0.00,322,Wunderground v.1.15,2013-09-12 23:30:00,
2013-09-12 17:35:00,82.6,49.7,29.79,SSE,162,0.0,5.0,32,0.00,,,0.00,304,Wunderground v.1.15,2013-09-12 23:35:00,
2013-09-12 17:40:00,82.2,50.2,29.79,SSE,163,1.0,1.0,33,0.00,,,0.00,292,Wunderground v.1.15,2013-09-12 23:40:00,
2013-09-12 17:45:00,82.0,50.1,29.78,SSE,162,0.0,5.0,33,0.00,,,0.00,262,Wunderground v.1.15,2013-09-12 23:45:00,
2013-09-12 17:50:00,81.7,50.6,29.78,SSE,162,4.0,4.0,34,0.00,,,0.00,267,Wunderground v.1.15,2013-09-12 23:50:00,
2013-09-12 17:55:00,82.0,50.1,29.78,SSE,164,0.0,4.0,33,0.00,,,0.00,255,Wunderground v.1.15,2013-09-12 23:55:00,
2013-09-12 18:00:00,82.2,49.4,29.78,SSE,166,0.0,1.0,32,0.00,,,0.00,248,Wunderground v.1.15,2013-09-13 00:00:00,
2013-09-12 18:05:00,82.8,49.1,29.78,SSE,165,0.0,5.0,31,0.00,,,0.00,241,Wunderground v.1.15,2013-09-13 00:05:00,
2013-09-12 18:10:00,83.6,48.9,29.78,South,169,0.0,0.0,30,0.00,,,0.00,232,Wunderground v.1.15,2013-09-13 00:10:00,
2013-09-12 18:15:00,83.1,49.3,29.78,South,169,0.0,0.0,31,0.00,,,0.00,223,Wunderground v.1.15,2013-09-13 00:15:00,
2013-09-12 18:20:00,82.8,50.8,29.78,South,169,0.0,0.0,33,0.00,,,0.00,211,Wunderground v.1.15,2013-09-13 00:20:00,
2013-09-12 18:25:00,82.5,48.8,29.78,South,175,0.0,5.0,31,0.00,,,0.00,200,Wunderground v.1.15,2013-09-13 00:25:00,
2013-09-12 18:30:00,82.3,51.1,29.77,South,176,0.0,1.0,34,0.00,,,0.00,188,Wunderground v.1.15,2013-09-13 00:30:00,
2013-09-12 18:35:00,81.4,51.1,29.77,South,173,1.0,8.0,35,0.00,,,0.00,179,Wunderground v.1.15,2013-09-13 00:35:00,
2013-09-12 18:40:00,80.7,51.3,29.77,SSW,192,6.0,6.0,36,0.00,,,0.00,163,Wunderground v.1.15,2013-09-13 00:40:00,
2013-09-12 18:45:00,79.6,52.5,29.77,SSW,193,4.0,9.0,39,0.00,,,0.00,148,Wunderground v.1.15,2013-09-13 00:45:00,
2013-09-12 18:50:00,78.7,51.0,29.77,South,180,4.0,5.0,38,0.00,,,0.00,134,Wunderground v.1.15,2013-09-13 00:50:00,
2013-09-12 18:55:00,78.1,50.4,29.77,South,191,3.0,5.0,38,0.00,,,0.00,116,Wunderground v.1.15,2013-09-13 00:55:00,
2013-09-12 19:00:00,77.7,50.1,29.77,SSW,192,4.0,10.0,38,0.00,,,0.00,63,Wunderground v.1.15,2013-09-13 01:00:00,
2013-09-12 19:05:00,77.1,50.9,29.77,South,171,4.0,10.0,40,0.00,,,0.00,60,Wunderground v.1.15,2013-09-13 01:05:00,
2013-09-12 19:10:00,76.7,49.9,29.77,South,175,6.0,7.0,39,0.00,,,0.00,53,Wunderground v.1.15,2013-09-13 01:10:00,
2013-09-12 19:15:00,76.4,50.3,29.76,South,186,0.0,9.0,40,0.00,,,0.00,42,Wunderground v.1.15,2013-09-13 01:15:00,
2013-09-12 19:20:00,76.0,50.6,29.76,SSW,208,2.0,4.0,41,0.00,,,0.00,33,Wunderground v.1.15,2013-09-13 01:20:00,
2013-09-12 19:25:00,75.6,50.2,29.76,South,186,0.0,6.0,41,0.00,,,0.00,25,Wunderground v.1.15,2013-09-13 01:25:00,
2013-09-12 19:30:00,75.3,50.0,29.77,SW,222,3.0,5.0,41,0.00,,,0.00,18,Wunderground v.1.15,2013-09-13 01:30:00,
2013-09-12 19:35:00,74.9,49.6,29.77,South,174,5.0,5.0,41,0.00,,,0.00,12,Wunderground v.1.15,2013-09-13 01:35:00,
2013-09-12 19:40:00,74.4,49.2,29.77,South,187,0.0,1.0,41,0.00,,,0.00,9,Wunderground v.1.15,2013-09-13 01:40:00,
2013-09-12 19:45:00,74.1,48.9,29.77,South,185,2.0,5.0,41,0.00,,,0.00,9,Wunderground v.1.15,2013-09-13 01:45:00,
2013-09-12 19:50:00,73.9,49.4,29.77,South,184,3.0,4.0,42,0.00,,,0.00,12,Wunderground v.1.15,2013-09-13 01:50:00,
2013-09-12 19:55:00,73.6,49.1,29.77,SSW,211,0.0,7.0,42,0.00,,,0.00,7,Wunderground v.1.15,2013-09-13 01:55:00,
2013-09-12 20:00:00,73.2,49.4,29.77,South,174,2.0,5.0,43,0.00,,,0.00,0,Wunderground v.1.15,2013-09-13 02:00:00,
2013-09-12 20:05:00,72.8,49.0,29.77,South,176,3.0,8.0,43,0.00,,,0.00,0,Wunderground v.1.15,2013-09-13 02:05:00,
2013-09-12 20:10:00,72.5,49.3,29.77,SSE,167,1.0,1.0,44,0.00,,,0.00,0,Wunderground v.1.15,2013-09-13 02:10:00,
2013-09-12 20:15:00,72.1,49.0,29.77,South,173,0.0,5.0,44,0.00,,,0.00,0,Wunderground v.1.15,2013-09-13 02:15:00,
2013-09-12 20:20:00,71.8,48.1,29.77,South,176,7.0,7.0,43,0.00,,,0.00,0,Wunderground v.1.15,2013-09-13 02:20:00,
2013-09-12 20:25:00,71.8,48.1,29.77,SSW,200,5.0,9.0,43,0.00,,,0.00,0,Wunderground v.1.15,2013-09-13 02:25:00,
2013-09-12 20:30:00,72.1,47.7,29.77,SSW,205,1.0,5.0,42,0.00,,,0.00,0,Wunderground v.1.15,2013-09-13 02:30:00,
2013-09-12 20:35:00,72.1,47.7,29.77,SSE,168,0.0,7.0,42,0.00,,,0.00,0,Wunderground v.1.15,2013-09-13 02:35:00,
2013-09-12 20:40:00,71.3,48.9,29.77,SE,142,5.0,6.0,45,0.00,,,0.00,0,Wunderground v.1.15,2013-09-13 02:40:00,
2013-09-12 20:45:00,70.2,49.0,29.78,SSE,160,0.0,6.0,47,0.00,,,0.00,0,Wunderground v.1.15,2013-09-13 02:45:00,
2013-09-12 20:50:00,69.7,48.6,29.78,ESE,121,0.0,6.0,47,0.00,,,0.00,0,Wunderground v.1.15,2013-09-13 02:50:00,
2013-09-12 20:55:00,69.7,48.6,29.78,SSE,160,0.0,6.0,47,0.00,,,0.00,0,Wunderground v.1.15,2013-09-13 02:55:00,
2013-09-12 21:00:00,69.9,48.2,29.78,SSE,150,0.0,5.0,46,0.00,,,0.00,0,Wunderground v.1.15,2013-09-13 03:00:00,
2013-09-12 21:05:00,70.2,49.0,29.78,ESE,111,4.0,6.0,47,0.00,,,0.00,0,Wunderground v.1.15,2013-09-13 03:05:00,
2013-09-12 21:10:00,69.5,48.4,29.78,South,176,0.0,2.0,47,0.00,,,0.00,0,Wunderground v.1.15,2013-09-13 03:10:00,
2013-09-12 21:15:00,69.6,48.5,29.79,SSE,159,0.0,8.0,47,0.00,,,0.00,0,Wunderground v.1.15,2013-09-13 03:15:00,
2013-09-12 21:20:00,69.1,48.6,29.79,SSE,156,0.0,1.0,48,0.00,,,0.00,0,Wunderground v.1.15,2013-09-13 03:20:00,
2013-09-12 21:25:00,68.9,47.8,29.79,SSE,160,0.0,4.0,47,0.00,,,0.00,0,Wunderground v.1.15,2013-09-13 03:25:00,
2013-09-12 21:30:00,68.6,48.7,29.79,SSE,160,0.0,0.0,49,0.00,,,0.00,0,Wunderground v.1.15,2013-09-13 03:30:00,
2013-09-12 21:35:00,68.0,48.1,29.79,SSE,159,0.0,0.0,49,0.00,,,0.00,0,Wunderground v.1.15,2013-09-13 03:35:00,
2013-09-12 21:40:00,67.8,48.5,29.79,SSE,160,0.0,0.0,50,0.00,,,0.00,0,Wunderground v.1.15,2013-09-13 03:40:00,
2013-09-12 21:45:00,67.6,48.8,29.78,SSE,159,0.0,0.0,51,0.00,,,0.00,0,Wunderground v.1.15,2013-09-13 03:45:00,
2013-09-12 21:50:00,67.3,48.0,29.78,SSE,159,0.0,0.0,50,0.00,,,0.00,0,Wunderground v.1.15,2013-09-13 03:50:00,
2013-09-12 21:55:00,67.0,48.3,29.78,SSE,159,0.0,5.0,51,0.00,,,0.00,0,Wunderground v.1.15,2013-09-13 03:55:00,
2013-09-12 22:00:00,66.6,48.4,29.79,SSE,157,0.0,0.0,52,0.00,,,0.00,0,Wunderground v.1.15,2013-09-13 04:00:00,
2013-09-12 22:01:00,66.5,48.3,29.79,SSE,159,0.0,0.0,52,0.00,,,0.00,0,Wunderground v.1.15,2013-09-13 04:01:00,
2013-09-12 22:02:00,66.4,48.2,29.79,SSE,157,0.0,2.0,52,0.00,,,0.00,0,Wunderground v.1.15,2013-09-13 04:02:00,
2013-09-12 22:07:00,65.7,48.6,29.79,SSE,149,3.0,4.0,54,0.00,,,0.00,0,Wunderground v.1.15,2013-09-13 04:07:00,
2013-09-12 22:12:00,65.2,48.6,29.79,SE,145,0.0,0.0,55,0.00,,,0.00,0,Wunderground v.1.15,2013-09-13 04:12:00,
2013-09-12 22:17:00,65.1,48.5,29.79,SSE,150,0.0,3.0,55,0.00,,,0.00,0,Wunderground v.1.15,2013-09-13 04:17:00,
2013-09-12 22:22:00,65.2,48.6,29.79,SSE,167,0.0,0.0,55,0.00,,,0.00,0,Wunderground v.1.15,2013-09-13 04:22:00,
2013-09-12 22:27:00,65.2,48.6,29.79,South,169,0.0,0.0,55,0.00,,,0.00,0,Wunderground v.1.15,2013-09-13 04:27:00,
2013-09-12 22:32:00,65.0,48.4,29.79,SSE,159,0.0,0.0,55,0.00,,,0.00,0,Wunderground v.1.15,2013-09-13 04:32:00,
2013-09-12 22:37:00,64.8,48.7,29.79,SSE,160,0.0,1.0,56,0.00,,,0.00,0,Wunderground v.1.15,2013-09-13 04:37:00,
2013-09-12 22:42:00,64.7,48.6,29.79,SSE,168,0.0,0.0,56,0.00,,,0.00,0,Wunderground v.1.15,2013-09-13 04:42:00,
2013-09-12 22:47:00,64.9,48.3,29.78,South,188,0.0,7.0,55,0.00,,,0.00,0,Wunderground v.1.15,2013-09-13 04:47:00,
2013-09-12 22:52:00,65.5,48.4,29.78,South,182,3.0,5.0,54,0.00,,,0.00,0,Wunderground v.1.15,2013-09-13 04:52:00,
2013-09-12 22:57:00,65.5,48.9,29.78,South,183,0.0,5.0,55,0.00,,,0.00,0,Wunderground v.1.15,2013-09-13 04:57:00,
2013-09-12 23:02:00,64.6,49.0,29.78,South,183,0.0,1.0,57,0.00,,,0.00,0,Wunderground v.1.15,2013-09-13 05:02:00,
2013-09-12 23:07:00,63.7,49.1,29.78,South,183,0.0,1.0,59,0.00,,,0.00,0,Wunderground v.1.15,2013-09-13 05:07:00,
2013-09-12 23:12:00,62.8,49.1,29.78,South,183,0.0,0.0,61,0.00,,,0.00,0,Wunderground v.1.15,2013-09-13 05:12:00,
2013-09-12 23:17:00,62.0,48.8,29.78,South,183,0.0,0.0,62,0.00,,,0.00,0,Wunderground v.1.15,2013-09-13 05:17:00,
2013-09-12 23:22:00,61.5,48.8,29.78,South,183,0.0,1.0,63,0.00,,,0.00,0,Wunderground v.1.15,2013-09-13 05:22:00,
2013-09-12 23:27:00,61.4,48.7,29.78,South,183,0.0,1.0,63,0.00,,,0.00,0,Wunderground v.1.15,2013-09-13 05:27:00,
2013-09-12 23:32:00,61.4,48.7,29.78,South,183,0.0,0.0,63,0.00,,,0.00,0,Wunderground v.1.15,2013-09-13 05:32:00,
2013-09-12 23:37:00,61.4,49.1,29.78,South,183,0.0,0.0,64,0.00,,,0.00,0,Wunderground v.1.15,2013-09-13 05:37:00,
2013-09-12 23:42:00,61.4,49.1,29.78,South,183,0.0,0.0,64,0.00,,,0.00,0,Wunderground v.1.15,2013-09-13 05:42:00,
2013-09-12 23:47:00,61.4,49.1,29.78,South,183,0.0,0.0,64,0.00,,,0.00,0,Wunderground v.1.15,2013-09-13 05:47:00,
2013-09-12 23:52:00,61.1,49.2,29.78,South,183,0.0,0.0,65,0.00,,,0.00,0,Wunderground v.1.15,2013-09-13 05:52:00,
2013-09-12 23:57:00,60.6,49.2,29.78,South,183,0.0,0.0,66,0.00,,,0.00,0,Wunderground v.1.15,2013-09-13 05:57:00,